Wetbulb
58.18 58.20 58.02 58.02 58.39 59.26 59.92 60.25 60.40 60.53 60.74 60.57 60.68 60.65 60.87 61.07 60.87 59.44 52.87 60.91 63.30 75.12 75.30 71.36 70.56 70.51 70.42 67.59 69.23 69.11 58.34 55.29 52.97 55.01 56.37 60.12 59.52 63.85 64.78 63.00 63.86 64.56 63.18 65.63 67.92
57.71 57.65 57.85 57.85 57.93 58.79 58.81 59.20 60.21 60.34 60.61 60.48 60.45 60.41 60.89 60.79 58.98 55.34 64.17 72.35 72.39 76.09 70.60 69.03 67.46 68.54 65.49 65.39 65.69 63.48 57.42 58.59 57.98 59.30 58.66 61.02 61.69 62.23 61.16 61.21 61.56 62.88 65.01 69.22 69.74
57.38 57.52 57.45 57.79 57.80 58.52 57.74 58.61 59.31 60.05 60.09 60.21 60.32 60.33 60.75 60.42 56.97 58.19 71.20 74.70 74.89 74.73 70.97 71.40 70.72 67.96 64.53 63.31 64.29 62.49 57.14 59.14 57.89 61.13 62.37 61.52 61.63 63.37 60.47 58.57 61.16 61.51 62.71 66.75 68.19
57.29 57.05 57.07 57.21 57.12 57.69 57.00 58.51 58.41 59.49 59.89 59.99 60.28 60.30 60.84 58.39 50.87 59.40 74.65 75.30 75.78 72.30 70.67 68.69 67.86 64.87 61.14 60.68 64.05 60.83 63.51 62.19 59.20 62.80 61.58 60.68 62.63 61.55 62.23 61.49 64.25 64.75 64.69 65.64 67.40
56.90 56.75 56.71 56.70 56.79 56.92 56.93 58.29 57.84 58.90 59.51 59.83 60.26 60.34 56.66 51.15 53.15 67.92 76.12 75.42 72.23 70.97 69.34 66.30 64.44 61.61 60.47 61.59 62.37 60.44 61.89 59.68 61.81 61.62 61.66 62.05 61.62 61.74 62.02 63.65 64.96 64.99 65.28 64.25 64.98
56.77 56.44 56.26 56.33 56.42 56.35 56.81 57.97 58.02 58.45 59.21 59.81 60.44 60.34 54.80 46.86 61.86 71.09 70.02 69.68 69.62 69.50 69.98 67.77 64.74 64.14 63.54 62.19 60.29 62.83 62.05 60.27 58.37 60.93 60.99 59.17 59.83 62.16 61.92 64.36 63.87 64.32 63.83 63.75 64.41
56.36 56.11 55.93 56.00 56.05 56.18 56.87 57.55 57.47 58.14 59.16 59.68 60.57 60.11 53.86 49.97 62.87 70.23 68.21 66.83 68.63 69.90 69.22 69.64 67.57 64.51 63.38 61.81 64.86 63.44 57.83 59.15 58.83 59.35 57.78 60.40 57.22 59.33 62.71 63.67 62.63 63.22 63.71 64.37 64.82
55.93 55.78 55.60 55.61 55.94 55.85 56.82 56.88 57.35 58.47 59.34 60.07 60.69 56.92 47.50 56.49 62.37 64.33 62.92 61.98 64.88 69.53 69.49 70.09 68.25 64.62 62.76 64.77 63.15 59.65 57.88 51.08 58.73 60.39 58.91 58.07 52.04 60.76 62.99 62.05 61.54 62.79 63.61 64.35 64.77
55.76 55.43 55.45 55.16 55.43 55.40 56.06 56.43 57.73 59.26 59.93 60.84 53.24 52.20 47.81 61.27 57.87 59.10 60.90 60.93 61.67 62.43 64.32 70.81 67.00 62.01 62.33 56.11 54.78 56.30 52.78 53.86 56.70 61.51 59.21 56.53 53.15 61.72 62.64 61.84 61.17 62.17 63.12 64.02 64.27
55.31 55.12 55.06 54.81 54.77 54.56 55.15 56.26 59.81 58.32 58.84 60.12 58.72 49.80 51.77 54.15 57.66 58.83 58.90 61.41 60.92 61.22 61.22 61.76 60.80 56.75 55.69 52.22 48.46 52.34 53.16 57.26 55.84 59.49 59.42 56.34 55.47 61.25 62.08 61.24 61.24 61.64 62.35 62.67 62.67
55.38 55.09 54.85 54.53 54.34 53.91 52.21 53.26 50.92 50.16 52.36 44.21 45.04 51.14 53.68 57.05 57.77 56.87 59.39 59.53 59.07 59.21 53.64 57.39 53.87 52.22 55.16 56.36 57.56 57.66 56.23 55.54 58.31 60.68 58.75 56.11 56.56 59.39 60.99 60.50 60.27 60.54 61.49 61.42 62.17
55.97 55.27 54.73 54.30 53.87 53.81 50.97 51.55 53.67 54.54 50.54 54.30 51.56 52.98 55.00 54.03 51.22 56.06 59.04 55.43 56.70 54.09 55.85 54.22 51.53 57.37 59.27 58.50 57.25 57.35 55.46 55.26 58.24 60.56 59.28 57.76 57.69 58.73 59.64 60.25 60.75 61.04 61.31 62.01 61.03
55.10 54.77 54.40 54.01 54.00 51.08 49.35 51.76 55.54 53.58 47.98 52.54 53.15 51.23 51.20 51.32 50.02 52.75 56.84 55.83 55.76 53.86 53.61 52.20 56.03 59.64 57.95 57.46 55.52 53.71 53.86 55.96 55.85 59.12 58.88 56.76 53.71 55.96 59.49 61.16 60.48 61.34 62.50 62.72 61.99
54.71 54.52 54.05 53.14 49.84 49.53 51.79 52.98 54.54 53.71 44.35 48.98 49.80 53.33 50.99 51.64 49.98 56.86 56.95 56.43 54.13 53.01 53.54 52.74 55.80 51.75 51.11 55.54 55.39 49.02 57.40 58.18 57.70 55.20 48.75 56.08 46.96 52.83 56.08 58.50 60.70 59.99 60.47 61.28 61.66
54.57 54.16 53.62 52.52 46.29 48.45 54.07 50.54 51.31 52.61 39.06 52.88 50.10 53.84 50.92 50.43 49.77 51.60 55.53 53.27 51.20 52.74 49.01 49.44 49.75 48.44 47.59 49.39 54.43 50.07 55.11 57.46 57.25 53.52 49.86 52.00 47.81 50.36 55.65 56.28 59.44 60.48 60.74 62.11 62.65
54.18 53.54 53.07 50.07 47.25 49.39 52.00 50.72 52.57 45.08 40.69 50.04 50.40 47.67 46.28 46.17 49.22 51.35 51.74 53.38 53.11 49.78 48.37 48.60 50.51 49.70 49.03 50.94 50.20 51.30 49.51 47.07 45.94 44.60 41.60 48.64 49.06 47.61 52.09 57.26 59.61 61.19 61.44 62.16 62.98
53.67 52.97 51.61 52.35 47.53 51.54 49.96 52.25 44.36 39.61 50.84 47.79 46.33 45.50 43.62 44.59 46.53 48.76 48.63 47.52 46.26 42.34 40.84 46.55 47.50 48.76 50.63 46.81 47.78 47.02 43.15 38.59 39.79 38.69 40.33 44.33 47.31 50.25 55.40 58.15 60.98 61.27 62.39 62.44 62.97
52.28 52.13 50.30 52.08 48.89 50.16 51.99 48.38 39.97 47.96 48.72 52.53 46.52 44.21 44.57 46.17 46.61 47.71 46.57 45.27 46.15 44.36 40.75 40.67 41.98 46.74 49.14 47.79 45.72 44.69 43.01 38.95 34.89 35.72 39.12 42.96 43.48 49.86 56.48 59.22 60.96 62.03 62.39 63.36 62.04
51.38 48.05 47.15 49.79 51.94 49.31 50.31 41.47 42.81 47.55 52.68 51.87 45.96 43.95 42.42 45.55 46.64 46.00 45.12 45.14 47.27 45.97 42.71 39.55 41.80 48.77 49.41 47.78 48.77 42.79 41.08 44.04 39.21 35.70 37.25 41.22 46.10 52.74 56.62 57.09 58.76 58.81 60.95 61.60 62.50
46.04 48.67 49.78 52.58 52.98 51.09 47.16 42.38 46.04 51.42 53.39 51.30 44.30 44.95 42.79 44.93 44.92 44.45 44.61 48.43 48.56 48.79 46.38 43.17 40.38 45.14 49.35 47.95 47.17 43.68 45.40 39.11 37.59 35.55 34.67 39.16 42.52 45.71 52.58 54.65 56.75 57.63 58.48 61.79 61.61
48.41 50.71 54.60 51.63 50.47 49.54 43.39 43.42 48.83 53.86 53.80 50.32 47.92 47.48 47.56 48.21 46.32 43.59 45.24 48.41 50.20 48.74 46.42 43.09 43.00 44.65 45.85 43.18 41.98 44.06 42.18 39.23 38.69 37.79 35.67 35.61 42.09 47.39 50.64 54.22 55.38 58.97 62.98 63.42 64.12
45.17 48.41 52.94 48.38 46.01 41.75 43.16 47.73 50.70 51.32 52.25 51.57 50.40 49.18 47.88 48.41 47.22 47.57 46.05 49.99 53.84 48.59 46.07 45.59 41.57 41.50 44.11 47.59 48.83 45.89 42.57 39.83 37.64 37.55 35.87 38.02 41.34 53.56 54.44 57.86 61.42 61.63 62.93 63.70 65.57
44.62 45.82 55.31 50.06 41.99 41.51 43.83 47.77 50.29 49.40 49.77 49.90 49.30 51.02 50.80 47.89 44.52 49.55 51.24 54.27 54.89 51.42 47.35 47.70 40.92 38.32 41.80 43.97 47.50 47.55 46.76 43.10 39.09 37.58 37.68 38.86 43.02 56.39 60.77 61.19 61.98 61.23 61.88 62.19 63.30
47.76 47.50 48.77 47.26 43.87 43.51 43.08 45.72 47.27 53.33 51.41 51.22 49.18 49.32 47.84 46.18 48.02 47.45 49.66 54.71 55.00 54.68 59.87 52.78 41.65 41.08 39.23 41.22 45.19 45.35 48.34 47.08 43.15 40.58 38.98 40.47 46.31 53.37 58.81 59.41 60.42 60.58 60.43 59.84 59.91
46.62 45.15 46.17 43.15 45.57 44.57 44.68 46.24 47.59 48.45 50.48 50.09 47.96 47.87 45.89 43.28 44.93 45.34 47.37 49.51 53.19 54.41 52.33 47.28 42.88 44.30 43.17 47.26 48.37 47.64 47.47 46.77 44.22 43.67 42.89 44.28 48.55 52.00 55.77 58.63 59.47 59.18 59.30 58.55 59.06
45.02 44.77 46.10 44.10 45.16 43.45 43.35 45.14 48.47 48.23 47.36 48.18 47.46 48.39 46.87 44.12 43.53 43.53 44.31 43.58 44.58 48.31 46.60 48.04 44.49 45.64 44.29 47.10 49.48 46.19 47.33 50.51 50.00 50.09 46.13 47.55 48.91 53.25 56.73 57.15 56.70 57.17 57.27 56.73 56.95
48.34 48.40 47.08 44.97 44.80 43.23 43.90 45.99 48.01 48.26 49.17 51.39 50.03 47.20 45.92 46.23 48.39 46.63 46.78 46.60 44.85 43.78 43.89 45.45 43.56 42.69 39.67 43.38 46.40 42.80 45.42 49.41 49.62 51.00 49.46 45.50 49.84 55.18 55.89 56.43 55.95 56.07 56.64 56.12 56.36
MSLP
1014.63 1014.33 1014.08 1013.83 1013.60 1013.32 1012.97 1012.66 1012.26 1011.90 1011.73 1011.47 1011.36 1011.27 1010.62 1010.87 1010.22 1010.31 1008.92 1006.72 1007.27 1008.20 1008.61 1008.74 1008.85 1009.08 1009.62 1010.04 1010.51 1010.47 1010.63 1009.60 1008.62 1008.41 1007.90 1007.81 1008.18 1008.42 1008.40 1008.91 1009.13 1009.38 1009.93 1010.74 1011.79
1014.61 1014.36 1014.03 1013.70 1013.50 1013.22 1012.94 1012.57 1012.19 1011.74 1011.57 1011.45 1011.16 1011.19 1010.53 1010.77 1010.24 1008.74 1006.12 1005.89 1006.76 1007.75 1008.33 1008.90 1009.09 1009.65 1009.98 1009.70 1009.84 1009.88 1009.60 1008.15 1006.89 1006.74 1007.14 1007.35 1007.72 1008.13 1008.72 1009.32 1009.40 1009.76 1010.28 1011.23 1012.15
1014.64 1014.27 1014.08 1013.70 1013.35 1013.14 1012.94 1012.41 1012.05 1011.67 1011.37 1011.32 1011.06 1010.98 1010.35 1010.63 1009.56 1006.68 1005.24 1005.60 1006.82 1007.72 1007.75 1008.29 1008.18 1008.54 1009.25 1009.10 1008.77 1008.46 1007.73 1006.30 1005.72 1005.69 1006.27 1006.92 1007.50 1007.78 1008.59 1009.30 1009.21 1009.33 1010.39 1011.40 1012.29
1014.58 1014.26 1013.86 1013.61 1013.32 1012.99 1012.88 1012.37 1011.94 1011.55 1011.24 1011.04 1010.94 1010.81 1010.31 1010.13 1008.35 1005.49 1005.11 1005.53 1006.68 1007.45 1007.68 1007.76 1008.49 1008.80 1008.63 1008.16 1007.62 1007.36 1006.16 1005.55 1005.32 1005.29 1006.15 1006.62 1006.98 1007.66 1008.00 1008.05 1008.51 1009.17 1009.98 1011.21 1012.12
1014.59 1014.27 1013.96 1013.53 1013.14 1012.95 1012.72 1012.28 1011.92 1011.45 1011.09 1010.85 1010.72 1010.64 1010.35 1009.07 1006.80 1004.95 1005.28 1005.77 1006.35 1006.85 1007.01 1007.52 1007.74 1007.33 1007.06 1007.05 1006.89 1006.81 1005.77 1005.09 1004.79 1005.14 1005.64 1006.12 1006.59 1007.24 1007.91 1008.15 1008.85 1009.63 1010.09 1010.91 1011.75
1014.57 1014.21 1013.86 1013.55 1013.11 1012.68 1012.43 1012.15 1011.70 1011.38 1011.04 1010.77 1010.58 1010.44 1010.06 1008.09 1005.26 1005.06 1005.55 1006.08 1006.06 1006.30 1006.18 1006.38 1006.55 1006.52 1006.55 1006.35 1006.35 1006.29 1005.82 1005.28 1005.50 1005.48 1005.85 1006.34 1007.01 1007.30 1008.07 1008.31 1009.09 1009.72 1010.19 1010.63 1011.28
1014.51 1014.18 1013.87 1013.36 1012.93 1012.52 1012.13 1011.85 1011.53 1011.19 1010.98 1010.74 1010.61 1010.30 1009.28 1006.60 1005.21 1005.46 1005.69 1005.78 1005.65 1005.57 1005.90 1006.16 1006.30 1006.66 1006.50 1006.26 1006.50 1006.17 1006.02 1005.76 1005.97 1006.07 1006.19 1006.51 1007.61 1007.57 1007.99 1008.50 1009.19 1009.80 1010.15 1010.58 1010.80
1014.49 1014.07 1013.71 1013.28 1012.74 1012.32 1011.85 1011.50 1011.30 1010.97 1010.81 1010.71 1010.59 1010.25 1008.19 1005.59 1005.38 1005.87 1005.97 1005.58 1005.28 1005.68 1006.25 1006.38 1006.44 1006.78 1007.09 1006.97 1006.80 1006.98 1006.79 1006.89 1006.46 1006.12 1006.16 1006.50 1007.53 1007.87 1008.24 1008.72 1009.35 1009.75 1010.09 1010.36 1010.53
1014.42 1013.94 1013.53 1013.23 1012.67 1012.08 1011.61 1011.20 1010.83 1010.69 1010.66 1010.62 1010.59 1009.90 1007.20 1005.76 1005.79 1005.39 1005.47 1005.48 1005.17 1005.45 1006.00 1006.28 1006.81 1007.20 1007.58 1007.99 1007.79 1008.02 1007.90 1007.86 1007.17 1006.40 1006.44 1006.97 1007.76 1008.09 1008.44 1008.81 1009.19 1009.57 1009.82 1009.98 1010.15
1014.23 1013.72 1013.23 1012.91 1012.62 1012.08 1011.36 1010.81 1010.60 1010.75 1010.67 1010.44 1010.07 1009.60 1006.51 1005.01 1004.54 1004.71 1005.01 1005.16 1005.47 1005.53 1005.77 1006.21 1007.09 1007.75 1008.31 1008.51 1008.42 1008.47 1008.43 1008.43 1008.01 1007.40 1007.45 1007.43 1007.54 1007.95 1008.33 1008.64 1008.81 1009.15 1009.45 1009.62 1009.63
1013.90 1013.44 1013.05 1012.65 1012.30 1012.01 1011.31 1010.85 1010.96 1010.51 1009.94 1008.55 1008.05 1007.24 1005.67 1004.48 1003.77 1004.21 1004.56 1005.24 1005.68 1005.74 1006.22 1006.26 1007.24 1007.39 1007.31 1007.27 1007.75 1008.13 1008.35 1008.44 1008.45 1007.79 1007.98 1008.26 1007.74 1007.66 1008.00 1008.64 1008.85 1008.95 1008.92 1009.03 1008.99
1013.84 1013.32 1012.78 1012.40 1012.12 1011.95 1011.94 1010.66 1008.89 1008.37 1008.22 1006.99 1006.83 1006.30 1005.36 1004.87 1004.52 1003.82 1004.05 1005.10 1005.48 1005.77 1006.02 1006.48 1006.41 1005.74 1005.93 1006.68 1007.09 1007.29 1008.15 1008.67 1008.13 1007.52 1008.44 1008.44 1008.49 1008.11 1007.95 1007.65 1007.82 1008.07 1008.35 1008.51 1008.76
1013.70 1013.04 1012.48 1012.03 1011.59 1011.55 1010.98 1009.21 1007.77 1007.66 1008.02 1006.27 1005.67 1005.09 1004.46 1004.60 1004.16 1003.56 1003.83 1004.31 1005.02 1005.66 1005.87 1006.10 1004.85 1005.01 1005.16 1005.71 1006.52 1006.66 1007.06 1007.98 1008.00 1008.02 1008.34 1008.59 1008.44 1008.04 1007.75 1007.74 1007.73 1007.76 1007.67 1007.85 1008.04
1013.42 1012.81 1012.20 1011.63 1011.59 1010.87 1009.89 1008.30 1007.74 1007.78 1007.68 1005.95 1004.94 1003.55 1003.68 1003.67 1003.60 1002.87 1003.22 1003.84 1004.72 1005.05 1005.54 1005.71 1004.72 1004.61 1004.51 1004.92 1005.66 1006.04 1005.39 1006.72 1006.79 1007.83 1008.50 1008.35 1008.46 1007.69 1007.41 1007.24 1007.22 1007.06 1007.16 1007.21 1007.52
1012.96 1012.52 1012.15 1012.07 1011.68 1010.31 1008.37 1007.96 1007.46 1007.57 1007.15 1004.82 1004.00 1002.70 1002.76 1003.42 1003.25 1002.85 1002.84 1003.44 1004.22 1004.67 1005.29 1004.88 1004.53 1004.35 1004.10 1003.88 1004.42 1004.65 1004.36 1005.64 1006.52 1007.70 1008.40 1008.81 1008.68 1006.99 1006.81 1006.75 1006.38 1006.12 1006.01 1006.26 1006.60
1012.75 1012.22 1011.89 1011.87 1011.67 1008.56 1007.63 1007.59 1007.49 1008.04 1006.16 1004.07 1003.17 1002.88 1003.24 1003.34 1003.20 1002.92 1003.01 1003.35 1003.76 1004.75 1005.15 1004.81 1004.31 1004.00 1003.39 1003.24 1003.72 1003.88 1004.54 1006.19 1007.51 1008.67 1009.71 1008.00 1008.14 1006.63 1006.09 1004.35 1004.90 1005.12 1005.18 1005.28 1005.81
1011.84 1011.41 1011.60 1010.73 1009.41 1007.96 1007.48 1007.52 1008.34 1007.98 1005.40 1004.14 1003.39 1003.29 1003.41 1003.71 1003.57 1003.42 1003.69 1003.92 1004.60 1005.28 1005.91 1005.07 1004.23 1003.41 1002.92 1003.13 1003.57 1004.25 1005.75 1007.17 1008.70 1009.64 1008.98 1007.82 1008.01 1005.69 1004.14 1003.61 1003.62 1004.08 1004.23 1004.43 1005.11
1010.83 1010.04 1009.87 1009.32 1008.44 1008.11 1007.64 1008.34 1008.46 1006.54 1005.10 1003.62 1003.37 1003.62 1003.94 1004.00 1003.87 1003.80 1004.18 1004.68 1004.86 1005.57 1006.67 1006.24 1004.71 1003.25 1002.54 1002.77 1003.40 1004.52 1005.68 1007.45 1008.81 1009.85 1009.03 1008.13 1007.05 1004.81 1003.77 1002.96 1003.38 1003.89 1004.24 1004.48 1004.85
1009.98 1009.66 1009.65 1007.57 1008.11 1008.60 1008.50 1009.17 1007.70 1006.33 1004.81 1003.95 1003.62 1004.04 1004.29 1004.05 1004.18 1004.38 1004.59 1004.70 1004.70 1005.28 1006.11 1006.10 1005.06 1003.07 1002.45 1002.35 1002.79 1004.64 1005.80 1006.76 1008.17 1009.49 1009.44 1007.90 1006.18 1004.61 1004.07 1003.73 1003.67 1004.15 1004.34 1004.50 1004.64
1010.78 1009.82 1008.29 1006.81 1007.33 1008.10 1008.73 1008.79 1007.44 1005.82 1004.56 1003.79 1003.66 1003.70 1004.20 1004.11 1004.43 1004.68 1004.66 1003.75 1004.24 1004.46 1004.62 1005.41 1005.26 1003.59 1002.50 1002.32 1003.18 1003.87 1005.22 1006.88 1008.49 1009.56 1009.59 1008.18 1006.82 1006.04 1005.02 1004.49 1004.37 1004.61 1004.76 1004.42 1004.41
1010.69 1009.55 1007.27 1006.84 1007.09 1008.37 1009.39 1008.64 1006.90 1005.30 1004.56 1004.12 1003.74 1003.66 1003.80 1004.01 1004.15 1004.53 1004.19 1003.42 1003.37 1004.10 1004.75 1005.49 1005.70 1004.52 1003.65 1003.66 1004.03 1004.58 1005.60 1007.15 1008.55 1009.24 1009.76 1009.15 1007.60 1006.26 1005.57 1005.49 1005.54 1005.69 1005.83 1005.46 1004.62
1011.16 1009.64 1007.45 1007.62 1008.02 1009.32 1009.12 1007.81 1006.43 1005.24 1004.60 1004.35 1003.86 1003.77 1003.85 1004.09 1004.31 1004.43 1004.23 1003.63 1003.22 1003.52 1004.70 1004.85 1005.94 1005.97 1005.00 1004.36 1004.38 1004.71 1005.89 1007.00 1008.92 1009.59 1009.67 1009.12 1007.69 1006.49 1005.81 1006.02 1006.42 1007.25 1007.14 1006.83 1005.64
1012.00 1010.45 1007.90 1007.78 1008.82 1009.47 1008.64 1007.56 1006.33 1005.27 1004.50 1004.33 1004.04 1003.87 1003.97 1004.63 1005.08 1004.91 1004.40 1003.88 1003.73 1003.73 1004.24 1004.77 1006.09 1006.58 1005.88 1005.71 1005.18 1005.41 1006.04 1006.83 1007.95 1008.86 1009.21 1009.28 1008.20 1007.61 1006.74 1007.29 1008.19 1008.35 1008.20 1007.36 1007.11
1012.33 1011.39 1009.68 1008.92 1009.23 1009.08 1008.69 1007.61 1006.39 1004.85 1004.46 1004.25 1004.34 1004.52 1004.63 1005.60 1005.73 1005.88 1005.48 1004.81 1004.57 1004.53 1004.62 1004.63 1006.68 1006.79 1006.65 1006.32 1006.18 1006.26 1006.42 1006.71 1007.65 1008.96 1009.25 1008.82 1008.45 1008.34 1008.37 1008.75 1009.18 1008.89 1008.62 1008.28 1008.56
1012.84 1012.88 1012.13 1010.77 1010.23 1009.66 1008.98 1007.54 1006.53 1005.55 1004.77 1004.76 1005.58 1005.72 1005.44 1006.48 1006.78 1006.71 1006.43 1006.10 1005.37 1005.33 1005.29 1005.65 1007.14 1007.36 1007.42 1006.86 1006.48 1006.75 1007.08 1007.27 1007.82 1008.51 1009.00 1008.27 1008.31 1008.67 1009.30 1009.86 1010.31 1009.94 1009.46 1009.42 1009.76
1013.96 1013.82 1012.73 1011.85 1010.96 1010.05 1009.07 1007.59 1006.77 1006.23 1006.06 1005.92 1006.20 1006.47 1006.05 1006.84 1007.08 1007.34 1007.31 1007.13 1007.15 1006.59 1006.80 1007.17 1008.27 1008.19 1008.37 1007.65 1006.95 1007.42 1007.88 1008.43 1008.69 1008.85 1008.68 1008.96 1009.38 1009.39 1010.01 1010.79 1011.24 1011.07 1010.99 1010.90 1011.10
1014.58 1014.07 1013.69 1012.72 1011.72 1010.75 1009.93 1008.37 1007.29 1006.63 1006.65 1006.30 1006.62 1006.77 1006.98 1007.16 1007.17 1007.23 1007.47 1007.54 1007.58 1007.84 1008.13 1008.47 1008.99 1009.57 1009.56 1008.72 1008.04 1008.59 1008.76 1009.04 1009.90 1010.36 1010.16 1010.01 1010.64 1010.70 1010.78 1011.57 1012.05 1012.22 1012.19 1012.15 1011.89
Wind_Speed
14 14 14 13 13 12 11 10 10 10 9 10 9 9 12 9 12 3 5 8 9 23 15 14 8 4 5 2 2 1 2 2 6 7 4 6 5 7 3 11 1 5 5 7 17
15 15 14 14 13 12 12 11 10 11 10 9 9 8 10 8 2 6 8 9 13 24 17 18 16 11 2 4 5 4 3 6 8 9 7 10 8 8 6 10 2 6 12 17 17
15 16 15 14 14 13 12 12 11 11 11 9 9 9 10 5 2 6 9 13 14 20 8 10 9 12 4 3 5 6 6 1 5 9 11 14 7 4 15 7 9 20 17 18 18
17 16 16 15 14 14 12 11 12 11 10 9 8 9 11 1 3 3 14 11 12 15 9 11 7 3 6 6 5 3 8 7 4 8 9 12 11 7 15 7 14 16 18 17 18
17 16 16 16 15 14 13 12 11 11 10 9 8 7 2 3 7 3 9 3 4 6 8 10 8 5 4 3 4 2 6 3 6 11 9 11 12 10 13 11 12 11 14 17 16
17 17 16 15 15 15 13 12 11 10 10 9 7 8 1 2 1 8 8 6 5 5 3 3 3 2 4 4 2 2 5 2 3 8 8 8 5 8 5 15 14 15 13 9 15
18 17 16 16 16 15 15 14 11 10 9 8 6 4 1 10 2 7 7 5 3 5 3 3 5 5 7 8 5 6 4 5 8 4 5 8 3 4 13 16 16 15 13 10 12
18 17 17 16 17 16 17 16 12 9 7 6 4 2 7 2 7 7 3 5 7 5 2 6 4 1 1 7 6 5 5 3 2 1 5 5 5 5 14 17 16 15 14 13 13
19 18 17 16 16 18 18 18 10 4 4 3 1 1 9 6 5 8 8 7 3 2 2 4 4 0 4 3 5 7 3 5 7 6 4 3 3 10 12 14 15 14 14 14 14
20 19 18 17 16 17 21 7 6 4 3 4 3 3 5 4 4 7 6 6 3 1 3 5 4 2 3 3 2 3 6 3 4 5 7 0 4 15 15 14 16 15 14 13 11
21 20 19 18 16 16 10 2 4 2 1 8 6 4 4 5 3 5 7 6 2 0 3 3 4 8 12 9 5 6 6 7 4 6 3 5 4 18 17 11 12 13 14 12 12
20 21 19 18 17 14 1 3 4 4 6 10 6 7 5 1 5 5 8 7 6 6 1 4 6 12 9 6 5 7 5 8 10 8 5 4 8 5 14 17 17 17 15 13 6
22 22 20 19 19 1 2 6 2 5 1 8 7 6 6 8 7 7 11 6 4 4 4 5 12 7 6 7 8 6 8 10 9 5 2 4 5 5 7 4 8 10 12 12 12
23 21 20 22 3 2 3 2 8 5 5 7 4 9 5 5 4 7 8 7 3 8 5 6 5 5 10 6 7 5 13 11 17 6 4 3 5 6 9 10 9 12 13 12 10
24 21 17 9 5 3 3 5 1 4 3 3 4 1 3 9 3 4 4 5 6 6 4 9 6 7 6 4 10 11 4 17 13 8 3 3 1 7 3 11 13 12 18 16 13
24 20 14 1 2 8 8 5 4 8 5 2 5 5 5 1 3 3 3 3 3 2 2 7 3 5 7 1 3 3 4 7 6 6 1 11 8 7 7 18 14 8 15 17 15
26 18 6 2 4 5 5 4 7 4 5 3 6 5 4 4 3 3 2 5 7 3 5 8 6 5 5 3 2 6 8 4 5 3 7 2 4 10 7 6 12 14 15 15 13
29 14 8 5 3 6 3 7 3 5 7 4 4 4 7 6 5 3 4 4 1 6 3 2 9 5 4 8 7 2 8 7 3 3 6 3 7 7 7 6 1 4 2 6 8
25 1 1 6 11 3 7 3 8 6 4 5 3 6 3 1 1 2 5 6 8 9 9 6 7 6 5 5 9 2 2 4 7 2 3 3 5 6 4 2 4 1 3 6 8
3 4 5 4 11 5 6 6 5 5 5 4 3 3 6 5 7 7 5 6 8 11 6 5 2 3 5 4 5 5 5 3 4 0 3 5 4 4 4 8 5 3 8 10 8
2 3 3 3 2 7 4 8 5 6 1 5 3 4 5 4 7 5 6 6 8 4 4 6 3 9 4 4 3 3 4 6 5 5 6 1 7 3 10 1 4 7 8 7 7
3 3 3 3 5 1 3 6 4 2 3 6 4 3 4 2 3 3 4 6 5 8 13 9 6 5 8 1 2 4 4 5 6 4 1 4 7 9 5 10 10 5 6 5 13
2 3 4 4 3 2 5 4 4 3 4 4 3 3 3 3 2 4 4 5 8 3 7 8 1 2 9 8 5 7 1 5 5 3 4 5 6 7 10 13 6 6 6 12 14
2 2 5 5 0 5 1 6 5 5 7 6 1 1 3 5 5 2 6 4 8 5 6 8 4 7 8 6 3 3 3 4 7 4 2 6 5 5 6 10 5 7 9 11 12
4 1 2 2 2 3 2 3 5 4 5 8 5 4 3 5 3 5 4 7 5 11 6 5 5 4 3 1 4 3 5 3 3 3 4 6 7 4 4 5 3 3 8 13 12
3 3 5 2 3 5 2 2 2 1 5 4 7 4 5 7 3 3 2 3 1 8 6 6 2 2 2 5 6 7 7 6 5 4 1 5 5 1 9 9 8 8 8 11 9
3 2 3 4 6 2 3 5 5 3 8 4 8 5 8 3 6 5 5 3 4 1 3 4 4 3 3 3 4 4 3 6 4 9 3 3 2 3 14 11 6 6 7 7 7
Wind_Direction
355 354 354 354 353 354 348 338 325 315 308 309 312 315 308 329 307 166 228 211 158 151 150 154 199 180 54 83 142 192 35 278 191 165 215 154 146 163 98 138 270 170 115 135 140
354 354 352 351 353 351 349 341 328 316 311 311 310 315 303 337 271 238 248 202 150 160 165 164 184 150 209 218 174 158 187 234 196 178 178 166 169 139 115 164 69 95 92 130 135
353 352 351 349 349 349 347 339 331 319 314 313 311 317 305 330 275 235 210 199 150 160 194 185 167 158 241 167 205 205 228 251 228 158 148 162 171 120 144 194 178 155 140 152 152
352 351 348 347 347 344 345 336 327 318 312 312 314 317 312 191 159 241 200 196 140 167 148 154 178 253 222 183 187 234 265 238 174 136 135 177 148 130 169 204 164 160 144 150 163
352 349 347 344 342 341 337 334 324 315 309 309 312 321 291 319 247 241 189 163 139 179 182 180 185 223 360 301 144 176 318 30 166 155 154 136 171 160 193 144 146 152 164 155 166
350 348 345 342 339 335 331 330 319 309 302 303 308 315 305 294 72 168 168 145 210 204 199 158 151 212 270 257 128 215 289 76 273 159 154 140 133 116 174 144 151 163 176 178 168
349 346 344 339 336 331 324 323 313 301 293 294 306 297 360 236 220 156 167 199 204 205 184 158 140 45 329 326 24 320 58 34 145 176 175 104 99 198 151 155 160 175 182 187 203
347 344 342 338 332 326 321 315 303 289 276 274 294 290 247 333 117 140 205 286 267 217 59 129 93 48 358 323 355 33 47 61 14 355 172 101 223 149 160 160 174 181 192 197 213
347 342 340 336 330 324 318 309 287 248 211 137 336 55 268 95 166 202 174 206 241 302 213 227 111 156 28 38 356 9 39 14 323 332 146 117 146 173 172 176 180 191 199 202 216
345 342 337 333 332 328 322 285 140 131 212 196 250 1 276 231 188 168 207 233 176 172 322 148 81 79 45 105 250 71 60 349 338 332 348 339 189 173 184 184 189 195 204 209 207
342 340 335 331 330 333 345 75 26 337 295 193 193 252 279 282 255 184 163 142 280 199 208 215 137 218 219 214 133 138 151 185 271 294 69 282 213 187 187 194 198 206 209 214 208
333 334 331 327 322 322 279 178 199 201 308 228 239 266 263 54 325 271 117 158 149 224 136 14 241 238 249 197 187 173 171 123 281 239 141 217 275 205 193 203 202 201 211 219 212
336 331 330 324 315 252 207 235 188 37 85 289 193 199 213 145 211 245 148 165 164 214 185 192 252 339 236 167 178 218 190 150 253 85 24 138 270 229 214 205 203 227 221 217 201
333 331 330 328 315 327 241 234 255 182 59 275 230 268 160 180 280 208 181 141 223 215 204 227 281 319 315 166 143 215 217 162 205 129 226 185 256 221 214 211 212 211 213 217 201
331 328 326 327 297 192 137 331 284 63 356 149 209 26 156 148 222 239 175 74 206 214 110 244 309 320 316 268 160 225 130 185 194 195 95 250 33 264 168 218 226 217 212 214 205
326 323 322 120 229 248 302 319 70 44 262 310 156 173 115 162 268 50 149 99 177 199 231 255 255 225 222 270 220 327 84 65 50 94 265 231 171 269 202 214 214 218 219 210 202
325 314 266 247 229 310 294 54 48 144 314 226 196 154 146 177 256 179 182 189 183 87 334 337 285 280 193 283 35 70 53 351 4 24 223 74 122 250 247 246 196 196 212 214 197
327 322 207 222 288 336 50 53 167 232 246 292 123 75 166 161 249 232 155 206 158 91 106 192 322 202 171 176 177 102 137 150 229 227 255 82 227 255 276 219 48 118 132 179 192
321 331 213 250 199 345 77 95 215 211 274 327 74 91 282 246 182 156 211 219 199 166 171 161 273 303 241 177 136 200 175 183 112 17 27 261 296 304 343 126 283 316 257 237 207
324 336 261 130 156 84 79 229 232 221 324 358 149 154 175 233 158 157 196 222 214 185 153 205 324 283 317 111 51 121 163 53 9 271 313 301 303 244 252 216 265 346 297 304 226
348 28 284 168 124 53 165 230 260 254 354 7 303 186 195 191 180 196 240 253 179 161 160 134 111 288 13 44 192 3 6 40 118 125 162 258 271 239 252 213 115 29 352 335 62
350 55 333 33 65 28 178 202 278 274 82 275 212 213 197 222 217 166 209 229 338 164 164 203 148 209 219 277 314 145 142 129 118 251 187 154 278 341 95 83 77 50 20 37 60
51 271 333 79 143 264 280 277 259 273 240 251 250 221 207 92 168 47 341 337 355 114 158 178 201 62 345 3 358 66 31 118 117 76 198 144 263 30 69 70 63 110 78 62 62
61 48 334 50 92 134 309 272 257 257 253 191 212 350 113 59 24 67 351 334 343 33 29 91 115 156 186 189 179 74 353 86 110 81 257 210 164 143 120 128 134 87 76 66 60
26 327 178 272 308 320 210 259 283 286 357 29 55 4 175 110 52 7 342 334 336 354 24 81 111 96 56 36 132 74 68 79 112 153 170 240 154 171 93 69 50 76 76 74 71
62 28 356 271 295 344 117 245 256 90 11 23 93 29 86 114 140 169 24 36 44 331 30 358 137 135 101 333 139 82 67 64 14 353 18 63 61 61 95 73 51 40 62 73 60
328 339 101 298 344 50 307 289 308 133 11 90 151 94 60 146 190 209 196 211 229 310 15 55 110 84 217 323 82 17 29 104 96 22 305 136 57 112 95 90 66 67 63 74 75